#�ϑ�����,���ϕ���,���ϕ���,�ő啗��,�ő啗����������,�ő�u�ԕ���,�ő�u�ԕ�����������
#(�N����),(m/s)   ,(16����),(m/s)   ,(16����)        ,(m/s)       ,(16����)            
2013/3/14 0:01,7,16,7.4,16,12.6,1
2013/3/14 0:02,6.4,16,7,16,7.8,16
2013/3/14 0:03,6.3,16,6.4,16,13.2,16
2013/3/14 0:04,6.1,16,6.3,16,14.5,14
2013/3/14 0:05,5.7,16,6,16,12.2,16
2013/3/14 0:06,5.9,16,5.9,16,12.8,1
2013/3/14 0:07,6.3,16,6.3,16,17.6,16
2013/3/14 0:08,6.6,16,6.6,16,17.4,16
2013/3/14 0:09,6.7,16,6.8,16,17,16
2013/3/14 0:10,6.5,16,6.6,16,9.5,15
2013/3/14 0:11,7.1,16,7.1,16,16.3,16
2013/3/14 0:12,7.8,16,7.8,16,13.5,1
2013/3/14 0:13,8.1,16,8.1,16,16.5,16
2013/3/14 0:14,8.3,16,8.3,16,26.5,1
2013/3/14 0:15,8.7,16,8.7,16,14,16
2013/3/14 0:16,8.8,16,8.8,16,14.8,16
2013/3/14 0:17,8.6,16,8.8,16,13.1,1
2013/3/14 0:18,8.2,16,8.6,16,13.1,16
2013/3/14 0:19,7.9,16,8.2,16,10.8,16
2013/3/14 0:20,8.2,16,8.2,16,17.4,1
2013/3/14 0:21,7.8,16,8.2,16,11.8,16
2013/3/14 0:22,7.6,16,7.7,16,10.7,16
2013/3/14 0:23,7.8,16,7.8,16,16.5,16
2013/3/14 0:24,7.3,16,7.8,16,11.6,16
2013/3/14 0:25,6.9,16,7.3,16,9.3,1
2013/3/14 0:26,6.5,16,6.9,16,11.3,15
2013/3/14 0:27,6.5,16,6.5,16,12.2,16
2013/3/14 0:28,6.4,16,6.5,16,13,15
2013/3/14 0:29,6.4,16,6.5,16,12.1,15
2013/3/14 0:30,6.2,16,6.5,16,11.8,1
2013/3/14 0:31,5.9,16,6.1,16,6.3,16
2013/3/14 0:32,5.8,16,6,16,14.9,15
2013/3/14 0:33,5.3,16,5.7,16,11.3,1
2013/3/14 0:34,5.4,16,5.4,16,10.8,2
2013/3/14 0:35,5.9,16,5.9,16,12.7,1
2013/3/14 0:36,5.8,16,5.9,16,6.9,16
2013/3/14 0:37,5.8,16,5.8,16,14.8,16
2013/3/14 0:38,5.8,16,5.9,16,11.8,2
2013/3/14 0:39,5.6,16,5.8,16,12.2,2
2013/3/14 0:40,5.2,1,5.6,16,6.9,2
2013/3/14 0:41,5,1,5.2,16,3.1,1
2013/3/14 0:42,5,1,5,16,13.9,16
2013/3/14 0:43,5.1,1,5.3,16,16.8,1
2013/3/14 0:44,5.3,1,5.4,16,15,1
2013/3/14 0:45,4.9,1,5.3,16,8.3,14
2013/3/14 0:46,5.2,1,5.2,16,14.1,1
2013/3/14 0:47,5.2,1,5.3,16,11.4,1
2013/3/14 0:48,5.3,1,5.3,16,12.3,16
2013/3/14 0:49,5.9,16,5.9,16,17.4,15
2013/3/14 0:50,6.6,16,6.6,16,17.4,16
2013/3/14 0:51,7.2,16,7.2,16,13.1,1
2013/3/14 0:52,7.3,16,7.6,16,12.3,1
2013/3/14 0:53,7.6,16,7.6,16,17,16
2013/3/14 0:54,7.6,16,7.7,16,16.7,16
2013/3/14 0:55,7.8,16,7.8,16,10.5,1
2013/3/14 0:56,8.1,16,8.1,16,16.3,1
2013/3/14 0:57,7.8,16,8,16,11.9,16
2013/3/14 0:58,8.1,16,8.2,16,15.2,16
2013/3/14 0:59,7.8,16,8.2,16,13.6,1
2013/3/14 1:00,7.7,16,7.8,16,14.2,16
2013/3/14 1:01,7.7,1,7.8,16,13.6,1
2013/3/14 1:02,7.8,16,7.8,16,14.9,1
2013/3/14 1:03,7.4,1,7.9,16,14.9,1
2013/3/14 1:04,6.8,1,7.3,16,4.9,16
2013/3/14 1:05,6.5,1,6.7,16,6.3,2
2013/3/14 1:06,5.7,1,6.5,16,5,2
2013/3/14 1:07,5.8,1,5.9,16,8.7,1
2013/3/14 1:08,5.5,1,5.8,16,16.1,2
2013/3/14 1:09,5.5,1,5.5,16,16.6,1
2013/3/14 1:10,5.2,1,5.6,16,12.4,1
2013/3/14 1:11,4.8,1,5.2,16,11,1
2013/3/14 1:12,4.6,1,4.7,16,13.2,1
2013/3/14 1:13,4.8,1,4.8,1,12.2,1
2013/3/14 1:14,5.1,1,5.1,1,8.2,2
2013/3/14 1:15,5,1,5.2,1,6.8,1
2013/3/14 1:16,5.3,1,5.3,1,8.5,14
2013/3/14 1:17,5.3,16,5.3,1,9.5,15
2013/3/14 1:18,5,16,5.2,1,8.2,16
2013/3/14 1:19,4.7,16,5,1,10.2,15
2013/3/14 1:20,4.8,16,4.8,1,10.5,15
2013/3/14 1:21,4.9,16,4.9,1,7.2,14
2013/3/14 1:22,4.7,16,4.9,1,6.8,16
2013/3/14 1:23,4.3,16,4.7,1,5.2,16
2013/3/14 1:24,4,16,4.3,1,3.9,4
2013/3/14 1:25,4.2,16,4.2,1,10.6,15
2013/3/14 1:26,4.3,16,4.3,1,8.6,16
2013/3/14 1:27,4.2,16,4.3,16,9.1,1
2013/3/14 1:28,4.2,16,4.3,16,7.9,1
2013/3/14 1:29,4.2,16,4.3,16,10,14
2013/3/14 1:30,4,16,4.2,16,7.2,1
2013/3/14 1:31,3.6,16,4,16,1.8,16
2013/3/14 1:32,3.3,16,3.6,16,2.5,7
2013/3/14 1:33,3.2,16,3.3,16,3,4
2013/3/14 1:34,3.1,1,3.2,16,3,2
2013/3/14 1:35,2.9,1,3.1,16,6.5,3
2013/3/14 1:36,2.7,1,2.9,16,6.2,2
2013/3/14 1:37,2.7,1,2.7,16,6.7,14
2013/3/14 1:38,2.6,1,2.7,16,7.6,16
2013/3/14 1:39,2.4,2,2.6,16,5.8,1
2013/3/14 1:40,2.5,1,2.5,16,9.3,16
2013/3/14 1:41,2.8,1,2.8,16,6.7,16
2013/3/14 1:42,3.2,1,3.2,16,8.5,1
2013/3/14 1:43,3.4,1,3.4,1,9,16
2013/3/14 1:44,3.6,1,3.6,1,8.3,16
2013/3/14 1:45,3.6,1,3.7,1,5.6,16
2013/3/14 1:46,3.7,1,3.7,1,6.8,16
2013/3/14 1:47,3.9,16,3.9,16,10.1,14
2013/3/14 1:48,3.9,16,4,1,9.4,3
2013/3/14 1:49,4.1,16,4.1,16,6.7,16
2013/3/14 1:50,4.2,16,4.2,16,12.4,15
2013/3/14 1:51,4.1,16,4.2,16,6.4,1
2013/3/14 1:52,4,16,4,16,11.8,2
2013/3/14 1:53,3.8,16,4,16,7.2,16
2013/3/14 1:54,3.9,16,3.9,16,7.5,16
2013/3/14 1:55,4.1,16,4.1,16,9,15
2013/3/14 1:56,4.3,16,4.4,16,11.3,15
2013/3/14 1:57,4.3,16,4.4,16,8.5,15
2013/3/14 1:58,4.2,16,4.3,16,7.4,3
2013/3/14 1:59,4.1,16,4.2,16,6.3,3
2013/3/14 2:00,3.7,16,4,16,5.8,1
2013/3/14 2:01,3.8,16,3.8,16,8.4,2
2013/3/14 2:02,3.8,16,3.9,16,10.2,12
2013/3/14 2:03,3.9,16,3.9,16,4.8,1
2013/3/14 2:04,4.1,16,4.1,16,7.9,15
2013/3/14 2:05,4.1,16,4.1,16,8.3,15
2013/3/14 2:06,3.7,16,4.1,16,5.7,14
2013/3/14 2:07,3.4,16,3.6,16,4.2,3
2013/3/14 2:08,3.2,15,3.4,16,4.3,1
2013/3/14 2:09,3.2,15,3.2,16,4.2,8
2013/3/14 2:10,3.3,15,3.3,16,6.4,14
2013/3/14 2:11,3.3,15,3.3,16,7.2,2
2013/3/14 2:12,3.1,16,3.4,16,8.4,15
2013/3/14 2:13,3.2,16,3.2,16,5.6,2
2013/3/14 2:14,2.9,16,3.1,16,9.3,3
2013/3/14 2:15,2.7,1,2.9,16,7.5,3
2013/3/14 2:16,2.8,16,2.8,16,6.7,13
2013/3/14 2:17,2.8,16,2.8,16,8.7,15
2013/3/14 2:18,3.1,16,3.1,15,7,1
2013/3/14 2:19,3,16,3.1,15,4.2,15
2013/3/14 2:20,3,16,3,15,3.9,16
2013/3/14 2:21,2.9,16,3,15,6,16
2013/3/14 2:22,2.9,16,2.9,16,6.8,16
2013/3/14 2:23,3,16,3,16,7.5,2
2013/3/14 2:24,2.9,16,3,16,4.3,13
2013/3/14 2:25,2.8,16,2.8,16,5.2,16
2013/3/14 2:26,2.7,16,2.8,16,4.2,16
2013/3/14 2:27,2.8,16,2.9,16,6.7,15
2013/3/14 2:28,2.8,16,2.8,16,9.1,16
2013/3/14 2:29,3,16,3,16,7.2,16
2013/3/14 2:30,3,16,3,16,5.7,13
2013/3/14 2:31,2.8,16,3,16,3.3,14
2013/3/14 2:32,2.7,16,2.8,16,3.7,16
2013/3/14 2:33,2.7,16,2.7,16,7,15
2013/3/14 2:34,3.2,16,3.2,16,11.7,16
2013/3/14 2:35,3.5,16,3.5,16,12.3,1
2013/3/14 2:36,3.6,15,3.6,16,5.8,16
2013/3/14 2:37,3.4,15,3.5,16,4.3,12
2013/3/14 2:38,3.4,15,3.4,16,10,1
2013/3/14 2:39,3.6,16,3.6,16,10.2,1
2013/3/14 2:40,3.8,16,3.8,16,9.1,16
2013/3/14 2:41,4.3,16,4.3,16,9.5,15
2013/3/14 2:42,4.5,16,4.5,16,6.9,13
2013/3/14 2:43,4.9,16,4.9,16,10.9,15
2013/3/14 2:44,4.5,16,4.9,16,7.6,1
2013/3/14 2:45,4.3,16,4.4,16,4.8,16
2013/3/14 2:46,4.2,16,4.3,16,5.6,16
2013/3/14 2:47,4.5,16,4.5,16,9.4,16
2013/3/14 2:48,4.4,16,4.6,16,5.8,15
2013/3/14 2:49,4.5,16,4.5,16,14.1,14
2013/3/14 2:50,4.7,16,4.7,16,14.3,15
2013/3/14 2:51,4.4,16,4.7,16,7.1,16
2013/3/14 2:52,4.5,16,4.5,16,13.6,16
2013/3/14 2:53,4.2,16,4.4,16,7,15
2013/3/14 2:54,4.1,16,4.1,16,4.8,16
2013/3/14 2:55,4.2,16,4.2,16,6.5,16
2013/3/14 2:56,4.1,16,4.2,16,4.2,3
2013/3/14 2:57,4.1,16,4.2,16,9.9,2
2013/3/14 2:58,4.2,16,4.3,16,7,14
2013/3/14 2:59,4,16,4.2,16,6.5,16
2013/3/14 3:00,4,16,4,16,9.7,15
2013/3/14 3:01,4,16,4.1,16,8.5,15
2013/3/14 3:02,3.7,16,4.1,16,5,4
2013/3/14 3:03,3.9,16,3.9,16,9,1
2013/3/14 3:04,4.2,16,4.2,16,9.5,16
2013/3/14 3:05,4.4,16,4.4,16,10.3,15
2013/3/14 3:06,4.6,16,4.6,16,10.9,15
2013/3/14 3:07,4.5,16,4.7,16,8.2,15
2013/3/14 3:08,4.5,16,4.5,16,7,16
2013/3/14 3:09,4.4,16,4.6,16,7.9,1
2013/3/14 3:10,4.1,16,4.3,16,7.7,2
2013/3/14 3:11,4.1,16,4.1,16,11.5,16
2013/3/14 3:12,4.4,16,4.4,16,11.8,16
2013/3/14 3:13,4.4,16,4.4,16,9.8,16
2013/3/14 3:14,4,16,4.3,16,5.1,16
2013/3/14 3:15,4,16,4,16,8.3,1
2013/3/14 3:16,4.4,16,4.4,16,16.1,1
2013/3/14 3:17,4.7,16,4.7,1,15.2,1
2013/3/14 3:18,5.1,16,5.1,16,14.7,16
2013/3/14 3:19,5.3,16,5.3,16,10.2,16
2013/3/14 3:20,5.4,16,5.4,16,6.4,1
2013/3/14 3:21,5.2,16,5.4,16,6.1,12
2013/3/14 3:22,5.1,16,5.1,16,6.1,15
2013/3/14 3:23,5.2,16,5.2,16,10,15
2013/3/14 3:24,5.6,16,5.6,16,13.5,1
2013/3/14 3:25,5.9,16,5.9,16,11.9,1
2013/3/14 3:26,5.5,16,5.9,16,9.7,15
2013/3/14 3:27,5.7,16,5.7,16,15.6,16
2013/3/14 3:28,5.9,16,5.9,16,15.3,16
2013/3/14 3:29,6.2,16,6.2,16,16.2,15
2013/3/14 3:30,6.2,16,6.2,16,9.1,16
2013/3/14 3:31,6.2,16,6.3,16,6.8,1
2013/3/14 3:32,6.3,16,6.3,16,8.5,15
2013/3/14 3:33,6.4,16,6.4,16,15,1
2013/3/14 3:34,6.3,16,6.4,16,12.2,15
2013/3/14 3:35,6.3,16,6.3,16,10.7,1
2013/3/14 3:36,6.3,16,6.4,16,12.7,16
2013/3/14 3:37,6.3,16,6.4,16,18,16
2013/3/14 3:38,6.1,16,6.4,16,13.8,16
2013/3/14 3:39,5.9,16,6,16,13.5,16
2013/3/14 3:40,6.2,16,6.2,16,15.2,16
2013/3/14 3:41,6.6,16,6.6,16,13.6,14
2013/3/14 3:42,7.1,16,7.1,16,24,15
2013/3/14 3:43,7.5,16,7.5,16,18.7,1
2013/3/14 3:44,7.4,16,7.6,16,16,1
2013/3/14 3:45,7.4,16,7.4,16,9,15
2013/3/14 3:46,7.7,16,7.7,16,18.8,16
2013/3/14 3:47,7.3,16,7.7,16,12.7,15
2013/3/14 3:48,7,16,7.2,16,10.9,16
2013/3/14 3:49,7.6,16,7.6,16,20.1,15
2013/3/14 3:50,7.7,16,7.7,16,16.1,16
2013/3/14 3:51,7.6,16,7.7,16,11.1,15
2013/3/14 3:52,7.3,16,7.6,16,12.8,16
2013/3/14 3:53,6.7,16,7.3,16,10.9,16
2013/3/14 3:54,6.5,16,6.6,16,6.7,16
2013/3/14 3:55,6.3,16,6.4,16,11.5,16
2013/3/14 3:56,6.2,16,6.3,16,11.8,16
2013/3/14 3:57,6.3,16,6.3,16,12.3,16
2013/3/14 3:58,6.2,16,6.4,16,8.2,1
2013/3/14 3:59,5.6,16,6.2,16,7.9,2
2013/3/14 4:00,5.2,16,5.6,16,7.8,16
2013/3/14 4:01,4.8,16,5.1,16,7,15
2013/3/14 4:02,4.6,16,4.8,16,11.7,1
2013/3/14 4:03,4.2,16,4.6,16,4.4,16
2013/3/14 4:04,4.1,16,4.2,16,3.8,15
2013/3/14 4:05,3.9,16,4.2,16,4.5,13
2013/3/14 4:06,3.4,16,3.8,16,4.5,14
2013/3/14 4:07,3.2,16,3.4,16,6.7,12
2013/3/14 4:08,3.6,16,3.6,16,14.3,15
2013/3/14 4:09,3.5,16,3.6,16,8.6,14
2013/3/14 4:10,3.6,15,3.6,16,11.8,16
2013/3/14 4:11,3.8,15,3.9,16,11.9,15
2013/3/14 4:12,4,15,4,16,15.8,15
2013/3/14 4:13,4,15,4,16,6.3,1
2013/3/14 4:14,4.4,15,4.4,15,11.3,1
2013/3/14 4:15,4.9,15,4.9,15,11.8,15
2013/3/14 4:16,5.3,15,5.3,15,10.8,15
2013/3/14 4:17,5.6,15,5.6,15,11.7,16
2013/3/14 4:18,5.4,15,5.7,15,10.8,16
2013/3/14 4:19,5.5,15,5.5,15,10.3,15
2013/3/14 4:20,5.4,15,5.5,15,6.9,15
2013/3/14 4:21,5.3,15,5.3,15,10.1,15
2013/3/14 4:22,5.1,15,5.2,15,7.5,14
2013/3/14 4:23,5.4,15,5.4,15,9.4,14
2013/3/14 4:24,5.2,15,5.4,15,5.6,15
2013/3/14 4:25,5.2,15,5.2,15,13.2,16
2013/3/14 4:26,5.4,15,5.4,15,12.2,15
2013/3/14 4:27,5.3,15,5.5,15,11.1,16
2013/3/14 4:28,5.5,15,5.5,15,14,14
2013/3/14 4:29,5.6,15,5.7,15,13.2,15
2013/3/14 4:30,5.7,15,5.8,15,11,11
2013/3/14 4:31,6,15,6,15,13.5,1
2013/3/14 4:32,6.5,15,6.5,15,14.8,16
2013/3/14 4:33,6.8,15,6.8,15,11.5,16
2013/3/14 4:34,6.8,15,6.9,15,9,16
2013/3/14 4:35,6.7,15,6.9,15,13.2,15
2013/3/14 4:36,6.7,15,6.8,15,13.5,16
2013/3/14 4:37,6.8,16,6.9,15,12.8,16
2013/3/14 4:38,6.3,16,6.7,15,8.1,14
2013/3/14 4:39,6,16,6.3,15,7.8,16
2013/3/14 4:40,6.1,16,6.1,15,9.5,13
2013/3/14 4:41,5.9,16,6.1,15,10.1,13
2013/3/14 4:42,5.2,16,5.9,15,6.8,16
2013/3/14 4:43,4.9,16,5.2,15,10.5,16
2013/3/14 4:44,5.1,16,5.1,15,9.7,16
2013/3/14 4:45,5.2,16,5.3,15,10.5,15
2013/3/14 4:46,4.9,15,5.2,15,9.2,15
2013/3/14 4:47,4.7,15,4.9,16,6.3,14
2013/3/14 4:48,4.7,15,4.9,16,8.1,14
2013/3/14 4:49,4.9,15,4.9,16,11.6,14
2013/3/14 4:50,4.9,15,5,16,10.6,15
2013/3/14 4:51,4.7,16,4.9,16,7.1,14
2013/3/14 4:52,5.2,16,5.2,16,10.3,15
2013/3/14 4:53,5.2,16,5.3,16,11.5,15
2013/3/14 4:54,5.1,15,5.2,16,7.2,14
2013/3/14 4:55,4.9,15,5,16,7.1,15
2013/3/14 4:56,4.5,16,4.8,16,5.1,1
2013/3/14 4:57,4.7,16,4.8,16,10.6,16
2013/3/14 4:58,4.8,16,4.8,16,6.1,2
2013/3/14 4:59,4.6,16,4.8,16,5.6,3
2013/3/14 5:00,4.2,16,4.5,16,4.7,8
2013/3/14 5:01,4.1,16,4.2,16,4.4,13
2013/3/14 5:02,3.5,16,4.1,16,3.9,10
2013/3/14 5:03,3.2,16,3.5,16,4.3,8
2013/3/14 5:04,2.9,1,3.1,15,3.2,8
2013/3/14 5:05,2.8,1,2.8,15,7.6,13
2013/3/14 5:06,2.9,16,2.9,16,5.4,13
2013/3/14 5:07,2.7,14,2.9,16,8.2,15
2013/3/14 5:08,2.8,14,2.8,16,8.1,15
2013/3/14 5:09,2.9,14,2.9,16,7.6,16
2013/3/14 5:10,3.2,14,3.2,16,11.5,14
2013/3/14 5:11,3.2,14,3.2,16,8.7,16
2013/3/14 5:12,3.7,15,3.7,15,9.3,14
2013/3/14 5:13,3.8,15,3.8,15,7.1,2
2013/3/14 5:14,3.8,15,3.8,15,4.4,2
2013/3/14 5:15,3.7,16,3.8,15,4.9,2
2013/3/14 5:16,3.5,16,3.6,15,3.9,15
2013/3/14 5:17,3.3,16,3.5,15,4.2,14
2013/3/14 5:18,3.1,16,3.3,15,7.7,14
2013/3/14 5:19,3.1,16,3.2,15,7.8,15
2013/3/14 5:20,3.1,16,3.2,15,7.8,15
2013/3/14 5:21,3.1,16,3.2,15,6.2,16
2013/3/14 5:22,3,16,3,15,9.8,1
2013/3/14 5:23,3.2,16,3.2,15,12.2,15
2013/3/14 5:24,3.5,16,3.5,15,9.2,1
2013/3/14 5:25,3.5,16,3.6,16,6.7,16
2013/3/14 5:26,3.5,16,3.6,16,3.7,5
2013/3/14 5:27,3.6,16,3.6,16,4.4,15
2013/3/14 5:28,3.7,16,3.7,16,7.2,16
2013/3/14 5:29,3.7,16,3.7,16,6.5,16
2013/3/14 5:30,3.6,1,3.7,16,6.3,1
2013/3/14 5:31,3.4,1,3.6,16,3.8,3
2013/3/14 5:32,3.1,16,3.4,16,2.6,13
2013/3/14 5:33,2.7,16,3.1,16,4.9,4
2013/3/14 5:34,2.7,1,2.7,16,7.2,4
2013/3/14 5:35,2.8,1,2.8,16,6,4
2013/3/14 5:36,2.8,16,2.8,16,4.8,13
2013/3/14 5:37,2.9,16,2.9,16,7,14
2013/3/14 5:38,3,16,3,16,9.2,15
2013/3/14 5:39,2.8,1,3,16,5.6,2
2013/3/14 5:40,2.9,16,2.9,1,9.1,1
2013/3/14 5:41,3.1,1,3.1,1,6.3,2
2013/3/14 5:42,3.6,1,3.6,1,10.2,3
2013/3/14 5:43,4.1,2,4.1,2,10.8,3
2013/3/14 5:44,4.1,1,4.2,2,10.7,4
2013/3/14 5:45,4.1,1,4.1,2,6.8,15
2013/3/14 5:46,4.4,1,4.4,1,8.3,1
2013/3/14 5:47,4.5,1,4.5,1,9.3,3
2013/3/14 5:48,4.5,2,4.5,1,7.5,5
2013/3/14 5:49,4.5,2,4.5,1,6,5
2013/3/14 5:50,4.5,2,4.5,1,10.5,2
2013/3/14 5:51,4.6,2,4.6,2,9.1,3
2013/3/14 5:52,4.6,2,4.7,2,10.7,3
2013/3/14 5:53,4.4,2,4.6,2,9.9,16
2013/3/14 5:54,4.6,2,4.6,2,11.3,15
2013/3/14 5:55,5.2,2,5.2,2,16.6,14
2013/3/14 5:56,5.4,1,5.4,2,11.7,16
2013/3/14 5:57,5.1,1,5.4,2,4.3,14
2013/3/14 5:58,5,1,5.1,2,7.6,16
2013/3/14 5:59,5.1,1,5.1,2,7.4,16
2013/3/14 6:00,5.2,1,5.3,2,10.1,15
2013/3/14 6:01,5.1,16,5.2,2,7,15
2013/3/14 6:02,4.8,16,5.2,2,8.2,15
2013/3/14 6:03,4.9,16,4.9,2,10.3,15
2013/3/14 6:04,4.9,16,5,2,10.1,16
2013/3/14 6:05,4.3,16,4.8,2,8.2,15
2013/3/14 6:06,4.3,16,4.3,1,13.9,15
2013/3/14 6:07,5,16,5,1,16.1,15
2013/3/14 6:08,5.2,15,5.2,1,12.2,16
2013/3/14 6:09,5.6,15,5.6,15,10.9,15
2013/3/14 6:10,5.7,15,5.7,15,14.8,16
2013/3/14 6:11,5.9,15,6,15,11.7,16
2013/3/14 6:12,6.3,15,6.3,15,13,16
2013/3/14 6:13,6.2,15,6.4,15,10.8,15
2013/3/14 6:14,6,15,6.1,15,4.1,12
2013/3/14 6:15,5.9,15,5.9,15,11.4,16
2013/3/14 6:16,5.9,15,6.1,15,10.8,15
2013/3/14 6:17,5.4,15,5.8,15,10.1,1
2013/3/14 6:18,5.5,15,5.5,15,13.8,15
2013/3/14 6:19,5.1,15,5.5,15,6.2,14
2013/3/14 6:20,4.8,15,5,15,8.3,15
2013/3/14 6:21,4.4,15,4.7,15,7,15
2013/3/14 6:22,3.8,15,4.3,15,4.3,16
2013/3/14 6:23,3.6,15,3.8,15,4.4,1
2013/3/14 6:24,3.5,16,3.6,15,4.7,16
2013/3/14 6:25,3.5,16,3.6,15,9.5,4
2013/3/14 6:26,3.1,16,3.4,15,4.2,3
2013/3/14 6:27,2.9,16,3.2,15,5.7,14
2013/3/14 6:28,2.5,16,2.9,15,3.9,13
2013/3/14 6:29,2.3,16,2.5,15,4.2,2
2013/3/14 6:30,2.1,1,2.3,15,4.9,2
2013/3/14 6:31,2.4,1,2.4,15,7.4,16
2013/3/14 6:32,2.5,1,2.5,15,5.6,16
2013/3/14 6:33,2.4,1,2.5,15,3,1
2013/3/14 6:34,2.3,1,2.4,16,2.2,4
2013/3/14 6:35,2.2,16,2.3,16,8.4,2
2013/3/14 6:36,2.4,1,2.4,16,6.5,2
2013/3/14 6:37,2.5,1,2.5,16,7.1,4
2013/3/14 6:38,2.5,2,2.6,1,5.2,2
2013/3/14 6:39,2.8,1,2.8,1,7.7,11
2013/3/14 6:40,2.9,1,2.9,1,5.7,13
2013/3/14 6:41,2.8,16,2.9,1,6.4,12
2013/3/14 6:42,2.7,16,2.8,1,5.2,14
2013/3/14 6:43,3,16,3,16,9,15
2013/3/14 6:44,3.1,16,3.2,15,5.7,13
2013/3/14 6:45,3,16,3.2,15,2.6,2
2013/3/14 6:46,2.8,15,3,15,2.5,12
2013/3/14 6:47,2.7,14,2.8,15,3.8,15
2013/3/14 6:48,2.6,14,2.7,15,4.1,15
2013/3/14 6:49,2.5,15,2.7,15,4.5,15
2013/3/14 6:50,2.3,15,2.5,15,3,6
2013/3/14 6:51,2.3,16,2.4,15,3.7,7
2013/3/14 6:52,2.1,16,2.2,15,1.3,8
2013/3/14 6:53,1.7,1,2,15,1.3,12
2013/3/14 6:54,1.7,1,1.7,16,4.7,15
2013/3/14 6:55,1.8,16,1.8,15,4.3,16
2013/3/14 6:56,1.8,2,1.8,15,3.1,4
2013/3/14 6:57,1.8,2,1.8,14,3.7,5
2013/3/14 6:58,1.8,4,1.8,14,4.2,10
2013/3/14 6:59,1.8,6,1.8,15,5.6,8
2013/3/14 7:00,1.9,7,1.9,15,6.3,10
2013/3/14 7:01,2.1,8,2.1,16,6.3,10
2013/3/14 7:02,2.3,9,2.3,9,5.8,10
2013/3/14 7:03,2.5,7,2.5,7,5.4,7
2013/3/14 7:04,2.5,7,2.6,7,4.5,5
2013/3/14 7:05,2.5,8,2.5,7,2.7,6
2013/3/14 7:06,2.5,8,2.5,7,3.9,9
2013/3/14 7:07,2.5,8,2.5,7,6.2,9
2013/3/14 7:08,2.6,9,2.6,7,6.2,9
2013/3/14 7:09,2.4,8,2.6,7,3,10
2013/3/14 7:10,2.5,8,2.5,7,4.5,8
2013/3/14 7:11,2.4,8,2.5,7,7,8
2013/3/14 7:12,2.6,8,2.6,7,7.2,9
2013/3/14 7:13,2.7,8,2.7,8,5.8,9
2013/3/14 7:14,2.5,9,2.6,8,2.6,10
2013/3/14 7:15,2.5,9,2.5,8,3.3,13
2013/3/14 7:16,2.3,9,2.5,8,1.9,12
2013/3/14 7:17,2.2,9,2.3,8,3.2,3
2013/3/14 7:18,2.1,9,2.2,8,5.7,12
2013/3/14 7:19,2.4,9,2.4,8,7.7,4
2013/3/14 7:20,2.3,11,2.4,8,3.2,14
2013/3/14 7:21,2.2,12,2.3,8,5.5,16
2013/3/14 7:22,2.2,14,2.2,8,8.1,16
2013/3/14 7:23,2.3,14,2.3,8,8.3,15
2013/3/14 7:24,2.5,15,2.5,9,6.8,15
2013/3/14 7:25,2.5,15,2.5,9,2.4,14
2013/3/14 7:26,2.5,15,2.5,15,2.7,6
2013/3/14 7:27,2.6,15,2.6,15,4.5,15
2013/3/14 7:28,2.7,16,2.7,16,10.1,14
2013/3/14 7:29,2.6,15,2.7,16,11.1,14
2013/3/14 7:30,2.5,15,2.6,16,3,8
2013/3/14 7:31,2.7,14,2.7,16,10.3,11
2013/3/14 7:32,2.5,14,2.7,16,6.1,12
2013/3/14 7:33,2.3,14,2.5,16,4.8,1
2013/3/14 7:34,2.2,13,2.3,16,4.2,10
2013/3/14 7:35,2.3,12,2.3,16,3.8,10
2013/3/14 7:36,2.5,12,2.5,16,3.6,7
2013/3/14 7:37,2.4,11,2.5,16,3.6,10
2013/3/14 7:38,2.3,11,2.5,15,3.3,8
2013/3/14 7:39,2.1,10,2.2,14,2.6,9
2013/3/14 7:40,2.2,10,2.2,14,2.4,8
2013/3/14 7:41,1.9,10,2.2,14,4.5,9
2013/3/14 7:42,1.9,10,1.9,14,2.4,16
2013/3/14 7:43,1.8,10,1.9,12,3.7,16
2013/3/14 7:44,1.8,9,1.8,12,4.3,2
2013/3/14 7:45,1.9,9,1.9,12,4.4,14
2013/3/14 7:46,1.8,13,1.9,12,4.4,15
2013/3/14 7:47,1.9,16,1.9,11,3,2
2013/3/14 7:48,2,2,2,11,6.2,4
2013/3/14 7:49,2.1,3,2.1,10,5.8,3
2013/3/14 7:50,2,2,2.1,10,4.7,5
2013/3/14 7:51,1.9,2,2,3,3.2,9
2013/3/14 7:52,2,3,2,3,4.5,6
2013/3/14 7:53,2,4,2.1,3,4.4,6
2013/3/14 7:54,2,4,2,3,3.6,14
2013/3/14 7:55,1.9,3,1.9,3,3.8,14
2013/3/14 7:56,1.9,3,1.9,3,2.5,15
2013/3/14 7:57,1.8,4,1.9,3,1.6,15
2013/3/14 7:58,1.6,4,1.7,3,3.9,9
2013/3/14 7:59,1.6,11,1.7,3,4.2,8
2013/3/14 8:00,1.8,10,1.8,3,7.1,9
2013/3/14 8:01,1.8,11,1.9,3,3.2,8
2013/3/14 8:02,1.8,11,1.8,3,4.7,9
2013/3/14 8:03,2,11,2,4,8.1,10
2013/3/14 8:04,2.2,10,2.2,11,7.6,9
2013/3/14 8:05,2.4,10,2.4,10,7.7,9
2013/3/14 8:06,2.5,10,2.5,10,6.4,2
2013/3/14 8:07,2.8,10,2.8,10,6.5,16
2013/3/14 8:08,2.9,10,3,10,6.8,1
2013/3/14 8:09,3,10,3,10,4.7,3
2013/3/14 8:10,3,9,3.1,10,6.1,5
2013/3/14 8:11,3,7,3.1,10,5.5,6
2013/3/14 8:12,3.1,11,3.1,10,5,12
2013/3/14 8:13,2.9,14,3.1,10,3.6,14
2013/3/14 8:14,2.6,16,2.9,10,2.7,14
2013/3/14 8:15,2.5,16,2.6,10,5.4,16
2013/3/14 8:16,2.4,16,2.5,10,4.7,15
2013/3/14 8:17,2.7,16,2.7,10,7.6,15
2013/3/14 8:18,2.6,15,2.6,10,5.2,15
2013/3/14 8:19,2.5,14,2.6,10,5,10
2013/3/14 8:20,2.4,14,2.5,8,4.4,8
2013/3/14 8:21,2.4,14,2.4,8,3.9,7
2013/3/14 8:22,2.8,13,2.8,10,9.7,10
2013/3/14 8:23,3.1,13,3.1,13,10.8,8
2013/3/14 8:24,3.4,12,3.4,12,6.8,6
2013/3/14 8:25,3.3,11,3.4,12,2.5,10
2013/3/14 8:26,3.1,10,3.2,12,2,12
2013/3/14 8:27,2.7,10,3.1,12,3,13
2013/3/14 8:28,2.6,9,2.7,12,2.1,12
2013/3/14 8:29,2.5,9,2.6,12,3.6,3
2013/3/14 8:30,2.9,8,2.9,12,10.6,3
2013/3/14 8:31,3.3,6,3.3,12,9.4,3
2013/3/14 8:32,3.1,5,3.4,12,7,3
2013/3/14 8:33,2.8,4,3,12,6.7,5
2013/3/14 8:34,3,4,3,11,8.7,5
2013/3/14 8:35,3.2,4,3.2,6,6.7,4
2013/3/14 8:36,3.2,4,3.2,6,2.6,14
2013/3/14 8:37,3.4,3,3.4,6,4.8,15
2013/3/14 8:38,3.5,3,3.5,3,4.3,1
2013/3/14 8:39,3.4,3,3.5,3,2.1,16
2013/3/14 8:40,3,3,3.4,3,2.9,8
2013/3/14 8:41,2.5,2,3,3,1.5,8
2013/3/14 8:42,2.3,16,2.4,3,3.5,12
2013/3/14 8:43,2.2,15,2.3,3,4.4,15
2013/3/14 8:44,2,14,2.2,3,6.5,14
2013/3/14 8:45,2.1,14,2.1,3,6.8,14
2013/3/14 8:46,2.2,14,2.2,3,6.7,15
2013/3/14 8:47,2,14,2.1,3,2.5,4
2013/3/14 8:48,2,14,2,3,4.1,8
2013/3/14 8:49,2.2,13,2.2,3,6.5,8
2013/3/14 8:50,2.2,13,2.2,3,4.8,9
2013/3/14 8:51,2.3,14,2.3,2,2.9,4
2013/3/14 8:52,2.3,16,2.3,16,5.7,15
2013/3/14 8:53,2.3,14,2.4,15,4.9,15
2013/3/14 8:54,2.1,16,2.3,15,4.9,1
2013/3/14 8:55,2,1,2.1,15,5.6,15
2013/3/14 8:56,2.1,3,2.1,15,4.5,3
2013/3/14 8:57,2.3,1,2.3,15,4.7,1
2013/3/14 8:58,2.3,1,2.4,15,5.7,15
2013/3/14 8:59,2.3,16,2.4,15,7.2,13
2013/3/14 9:00,2.4,16,2.4,15,4.3,9
2013/3/14 9:01,2.5,16,2.5,16,4.1,3
2013/3/14 9:02,2.5,16,2.6,16,5.1,4
2013/3/14 9:03,2.4,16,2.5,16,3.2,1
2013/3/14 9:04,2.7,16,2.7,16,10.7,15
2013/3/14 9:05,2.7,16,2.7,16,5.8,15
2013/3/14 9:06,2.9,15,2.9,15,6.8,1
2013/3/14 9:07,2.9,16,2.9,15,4.4,4
2013/3/14 9:08,2.7,16,2.8,15,1.8,4
2013/3/14 9:09,2.6,1,2.7,15,6,8
2013/3/14 9:10,2.5,2,2.6,15,4.7,9
2013/3/14 9:11,2.6,2,2.6,15,4.8,7
2013/3/14 9:12,2.6,5,2.6,15,5.4,8
2013/3/14 9:13,2.7,6,2.7,15,3.5,8
2013/3/14 9:14,2.4,6,2.7,15,3.1,8
2013/3/14 9:15,2.6,6,2.6,15,15.1,16
2013/3/14 9:16,2.5,6,2.7,15,14.2,16
2013/3/14 9:17,2.4,7,2.5,16,3.7,14
2013/3/14 9:18,2.5,8,2.5,1,3.8,2
2013/3/14 9:19,2.6,11,2.6,6,5.4,13
2013/3/14 9:20,2.6,13,2.6,6,3.9,16
2013/3/14 9:21,2.6,14,2.6,6,5.2,1
2013/3/14 9:22,2.7,15,2.7,6,5.6,16
2013/3/14 9:23,2.8,15,2.8,15,6.9,14
2013/3/14 9:24,3.1,15,3.1,15,7.5,15
2013/3/14 9:25,3.1,15,3.2,15,8.9,14
2013/3/14 9:26,3.2,15,3.2,15,8.4,14
2013/3/14 9:27,3.1,15,3.1,15,1.9,7
2013/3/14 9:28,3,14,3.1,15,2.4,9
2013/3/14 9:29,2.8,15,3,15,1.3,14
2013/3/14 9:30,2.7,15,2.8,15,3.1,16
2013/3/14 9:31,2.6,15,2.7,15,3.3,15
2013/3/14 9:32,2.3,15,2.6,15,2.2,15
2013/3/14 9:33,2.1,15,2.3,15,1.8,14
2013/3/14 9:34,1.9,15,2.1,15,3.3,1
2013/3/14 9:35,1.6,14,1.9,15,5.8,10
2013/3/14 9:36,1.5,14,1.6,15,6,13
2013/3/14 9:37,1.5,14,1.5,15,3.3,8
2013/3/14 9:38,1.5,14,1.5,14,2.6,8
2013/3/14 9:39,1.7,14,1.7,15,4.3,16
2013/3/14 9:40,1.7,14,1.7,15,4.8,2
2013/3/14 9:41,1.7,14,1.7,15,4.8,1
2013/3/14 9:42,2,16,2,14,5,3
2013/3/14 9:43,2.1,15,2.1,15,3.1,8
2013/3/14 9:44,2.2,15,2.2,15,3.8,13
2013/3/14 9:45,2.2,15,2.2,15,6,1
2013/3/14 9:46,2.4,16,2.4,16,9.5,16
2013/3/14 9:47,2.7,16,2.7,16,6.9,15
2013/3/14 9:48,2.8,16,2.8,16,5,13
2013/3/14 9:49,2.8,16,2.9,16,5.8,12
2013/3/14 9:50,3,15,3,15,9.1,16
2013/3/14 9:51,3.1,15,3.1,15,5,3
2013/3/14 9:52,3.1,15,3.1,15,7,14
2013/3/14 9:53,3.2,15,3.2,15,4.3,16
2013/3/14 9:54,3.4,15,3.4,15,8.1,15
2013/3/14 9:55,3.5,15,3.5,15,7.2,15
2013/3/14 9:56,3.4,15,3.5,15,5.7,15
2013/3/14 9:57,3.3,16,3.4,15,5.2,16
2013/3/14 9:58,3.4,16,3.4,15,6.3,15
2013/3/14 9:59,3.4,16,3.4,15,4.2,2
2013/3/14 10:00,3.1,16,3.4,15,2.7,5
2013/3/14 10:01,2.9,16,3.1,15,2.2,5
2013/3/14 10:02,2.7,16,2.9,15,3.3,2
2013/3/14 10:03,2.6,16,2.7,15,3.5,16
2013/3/14 10:04,2.3,16,2.6,15,2.7,12
2013/3/14 10:05,2,16,2.3,15,3.1,8
2013/3/14 10:06,2,16,2,15,5.8,15
2013/3/14 10:07,2,1,2,15,11,5
2013/3/14 10:08,2.1,1,2.1,16,9.9,2
2013/3/14 10:09,2.1,1,2.2,16,5.7,1
2013/3/14 10:10,2.2,15,2.2,16,3.6,11
2013/3/14 10:11,2.2,15,2.2,16,2.1,8
2013/3/14 10:12,2.3,15,2.3,16,4.3,3
2013/3/14 10:13,2.2,14,2.3,16,2.4,9
2013/3/14 10:14,2.3,14,2.3,16,4.8,13
2013/3/14 10:15,2.3,14,2.4,14,3.3,15
2013/3/14 10:16,2.3,14,2.3,14,5.1,11
2013/3/14 10:17,2.2,14,2.3,14,4.1,7
2013/3/14 10:18,1.8,12,2.2,14,3.8,5
2013/3/14 10:19,1.8,11,1.8,14,4.8,7
2013/3/14 10:20,1.7,12,1.8,14,2,15
2013/3/14 10:21,1.6,15,1.7,14,1.8,15
2013/3/14 10:22,1.5,13,1.6,14,3.3,13
2013/3/14 10:23,1.7,13,1.7,14,6.8,14
2013/3/14 10:24,1.8,13,1.8,14,6.8,12
2013/3/14 10:25,2,14,2,14,6,12
2013/3/14 10:26,2.2,14,2.2,14,6.1,15
2013/3/14 10:27,2.1,14,2.2,14,5.6,1
2013/3/14 10:28,2.3,15,2.3,15,7.2,16
2013/3/14 10:29,2.6,15,2.6,15,8.5,1
2013/3/14 10:30,2.9,15,2.9,15,7.7,15
2013/3/14 10:31,3,15,3,15,3.3,1
2013/3/14 10:32,3,16,3.1,15,3,4
2013/3/14 10:33,2.8,16,3,15,1.4,9
2013/3/14 10:34,2.6,1,2.8,15,1.6,3
2013/3/14 10:35,2.3,1,2.6,15,1.8,12
2013/3/14 10:36,2.2,16,2.3,15,3.7,14
2013/3/14 10:37,2.1,16,2.2,15,3.5,13
2013/3/14 10:38,2,16,2.1,15,4.8,4
2013/3/14 10:39,1.7,1,2,15,3.8,7
2013/3/14 10:40,1.8,1,1.8,15,7,15
2013/3/14 10:41,2,16,2,15,6.1,15
2013/3/14 10:42,2.1,15,2.1,16,6.4,14
2013/3/14 10:43,2.2,15,2.2,16,5.6,2
2013/3/14 10:44,2.3,15,2.3,1,4.3,6
2013/3/14 10:45,2.5,16,2.5,16,5.1,1
2013/3/14 10:46,2.4,16,2.5,16,4.5,15
2013/3/14 10:47,2.8,16,2.8,16,9,15
2013/3/14 10:48,2.9,16,2.9,16,7.1,16
2013/3/14 10:49,3.1,16,3.1,16,4.9,16
2013/3/14 10:50,2.7,16,3,16,1.9,16
2013/3/14 10:51,2.4,16,2.6,16,1.1,13
2013/3/14 10:52,2.2,15,2.4,16,2.2,15
2013/3/14 10:53,2.2,15,2.3,16,4.4,15
2013/3/14 10:54,2.2,15,2.3,16,3.5,15
2013/3/14 10:55,2,15,2.2,16,3.3,16
2013/3/14 10:56,2,15,2.1,16,3,15
2013/3/14 10:57,1.7,15,2,16,3.3,13
2013/3/14 10:58,1.5,15,1.7,16,5.4,15
2013/3/14 10:59,1.7,15,1.7,16,7.5,15
2013/3/14 11:00,2,15,2,16,5.7,16
2013/3/14 11:01,2.3,15,2.3,16,5,16